User: anonymous   Login
Location: Columbia
(38.9520°N, 92.3340°W)
Time: 18:33:37
(UTC-06:00)
Language:

Cosmos 2100 Rocket - Orbit

View from above orbital plane
View from above orbital plane
View from above satellite
View from above satellite

Ground track
Ground track

The orbit data is extracted from the following two-line orbital elements,

1 20805U 90083B   18052.57061913  .00000148  00000-0  13621-3 0  9992
2 20805  82.9340 235.7952 0031659  58.4160 358.9938 13.75840394377695
Epoch (UTC): 21 February 2018 13:41:41
Eccentricity: 0.0031659
inclination: 82.9340°
perigee height: 955 km
apogee height: 1002 km
right ascension of ascending node: 235.7952°
argument of perigee: 58.4160°
revolutions per day: 13.75840394
mean anomaly at epoch: 358.9938°
orbit number at epoch: 37769

The dashed part of the orbit path shows where the satellite is in the earth's shadow,  

DLR